Time,TemperatureF,DewpointF,PressureIn,WindDirection,WindDirectionDegrees,WindSpeedMPH,WindSpeedGustMPH,Humidity,HourlyPrecipIn,Conditions,Clouds,dailyrainin,SoftwareType,DateUTC
2013-08-28 00:02:00,78.4,70.2,29.90,SW,215,0.0,9.0,76,0.00,,,0.00,meteohub,2013-08-28 05:02:00,
2013-08-28 00:07:00,78.4,69.8,29.90,SSW,207,4.0,9.0,75,0.00,,,0.00,meteohub,2013-08-28 05:07:00,
2013-08-28 00:12:00,78.3,70.0,29.90,SSW,212,1.0,9.0,76,0.00,,,0.00,meteohub,2013-08-28 05:12:00,
2013-08-28 00:17:00,78.3,70.0,29.90,SW,217,3.0,8.0,76,0.00,,,0.00,meteohub,2013-08-28 05:17:00,
2013-08-28 00:22:00,78.3,70.0,29.90,WSW,242,9.0,11.0,76,0.00,,,0.00,meteohub,2013-08-28 05:22:00,
2013-08-28 00:27:00,78.3,70.0,29.90,WSW,249,1.0,11.0,76,0.00,,,0.00,meteohub,2013-08-28 05:27:00,
2013-08-28 00:32:00,78.1,70.3,29.90,WSW,246,3.0,11.0,77,0.00,,,0.00,meteohub,2013-08-28 05:32:00,
2013-08-28 00:37:00,78.1,70.3,29.89,WSW,240,5.0,9.0,77,0.00,,,0.00,meteohub,2013-08-28 05:37:00,
2013-08-28 00:42:00,77.9,70.2,29.89,West,271,3.0,9.0,77,0.00,,,0.00,meteohub,2013-08-28 05:42:00,
2013-08-28 00:47:00,77.9,70.5,29.89,WSW,244,5.0,9.0,78,0.00,,,0.00,meteohub,2013-08-28 05:47:00,
2013-08-28 00:52:00,77.9,70.5,29.89,WSW,248,5.0,9.0,78,0.00,,,0.00,meteohub,2013-08-28 05:52:00,
2013-08-28 00:57:00,77.7,70.3,29.89,WSW,250,6.0,9.0,78,0.00,,,0.00,meteohub,2013-08-28 05:57:00,
2013-08-28 01:02:00,77.5,70.2,29.89,SW,232,3.0,9.0,78,0.00,,,0.00,meteohub,2013-08-28 06:02:00,
2013-08-28 01:07:00,77.5,70.2,29.89,SW,221,4.0,9.0,78,0.00,,,0.00,meteohub,2013-08-28 06:07:00,
2013-08-28 01:12:00,77.5,70.5,29.89,WSW,246,5.0,9.0,79,0.00,,,0.00,meteohub,2013-08-28 06:12:00,
2013-08-28 01:17:00,77.5,70.5,29.89,SW,228,6.0,10.0,79,0.00,,,0.00,meteohub,2013-08-28 06:17:00,
2013-08-28 01:22:00,77.4,70.3,29.89,West,267,5.0,11.0,79,0.00,,,0.00,meteohub,2013-08-28 06:22:00,
2013-08-28 01:27:00,77.4,70.3,29.89,WSW,243,8.0,11.0,79,0.00,,,0.00,meteohub,2013-08-28 06:27:00,
2013-08-28 01:32:00,77.2,70.5,29.88,SW,227,6.0,10.0,80,0.00,,,0.00,meteohub,2013-08-28 06:32:00,
2013-08-28 01:37:00,77.2,70.9,29.88,West,261,1.0,10.0,81,0.00,,,0.00,meteohub,2013-08-28 06:37:00,
2013-08-28 01:42:00,77.0,70.7,29.88,WSW,244,4.0,10.0,81,0.00,,,0.00,meteohub,2013-08-28 06:42:00,
2013-08-28 01:47:00,77.0,70.7,29.88,WSW,240,4.0,11.0,81,0.00,,,0.00,meteohub,2013-08-28 06:47:00,
2013-08-28 01:52:00,76.8,70.5,29.88,SSW,211,5.0,11.0,81,0.00,,,0.00,meteohub,2013-08-28 06:52:00,
2013-08-28 01:57:00,76.6,70.7,29.89,SSW,209,2.0,11.0,82,0.00,,,0.00,meteohub,2013-08-28 06:57:00,
2013-08-28 02:02:00,76.6,70.7,29.89,SW,233,0.0,9.0,82,0.00,,,0.00,meteohub,2013-08-28 07:02:00,
2013-08-28 02:07:00,76.6,70.7,29.89,West,269,1.0,9.0,82,0.00,,,0.00,meteohub,2013-08-28 07:07:00,
2013-08-28 02:12:00,76.6,70.7,29.89,WSW,242,2.0,9.0,82,0.00,,,0.00,meteohub,2013-08-28 07:12:00,
2013-08-28 02:17:00,76.6,70.7,29.89,SW,215,4.0,7.0,82,0.00,,,0.00,meteohub,2013-08-28 07:17:00,
2013-08-28 02:22:00,76.6,70.7,29.88,WSW,257,4.0,7.0,82,0.00,,,0.00,meteohub,2013-08-28 07:22:00,
2013-08-28 02:27:00,76.5,70.9,29.88,WSW,241,2.0,8.0,83,0.00,,,0.00,meteohub,2013-08-28 07:27:00,
2013-08-28 02:32:00,76.5,70.9,29.89,SW,226,6.0,8.0,83,0.00,,,0.00,meteohub,2013-08-28 07:32:00,
2013-08-28 02:37:00,76.5,70.9,29.89,SSW,209,1.0,10.0,83,0.00,,,0.00,meteohub,2013-08-28 07:37:00,
2013-08-28 02:42:00,76.5,70.9,29.89,SSW,207,6.0,10.0,83,0.00,,,0.00,meteohub,2013-08-28 07:42:00,
2013-08-28 02:47:00,76.6,70.7,29.89,SW,225,2.0,10.0,82,0.00,,,0.00,meteohub,2013-08-28 07:47:00,
2013-08-28 02:52:00,76.6,70.7,29.89,SSW,213,7.0,7.0,82,0.00,,,0.00,meteohub,2013-08-28 07:52:00,
2013-08-28 02:57:00,76.8,70.9,29.89,WSW,252,3.0,8.0,82,0.00,,,0.00,meteohub,2013-08-28 07:57:00,
2013-08-28 03:02:00,76.6,70.7,29.89,SW,226,2.0,8.0,82,0.00,,,0.00,meteohub,2013-08-28 08:02:00,
2013-08-28 03:07:00,76.6,70.7,29.89,WNW,286,0.0,8.0,82,0.00,,,0.00,meteohub,2013-08-28 08:07:00,
2013-08-28 03:12:00,76.6,70.7,29.89,SW,234,1.0,8.0,82,0.00,,,0.00,meteohub,2013-08-28 08:12:00,
2013-08-28 03:17:00,76.5,70.5,29.90,WSW,247,2.0,9.0,82,0.00,,,0.00,meteohub,2013-08-28 08:17:00,
2013-08-28 03:22:00,76.5,70.5,29.90,SSW,192,6.0,10.0,82,0.00,,,0.00,meteohub,2013-08-28 08:22:00,
2013-08-28 03:27:00,76.5,70.5,29.90,SSW,198,4.0,10.0,82,0.00,,,0.00,meteohub,2013-08-28 08:27:00,
2013-08-28 03:32:00,76.5,70.5,29.90,SW,217,4.0,10.0,82,0.00,,,0.00,meteohub,2013-08-28 08:32:00,
2013-08-28 03:37:00,76.5,70.5,29.90,WSW,242,1.0,8.0,82,0.00,,,0.00,meteohub,2013-08-28 08:37:00,
2013-08-28 03:42:00,76.5,70.5,29.90,West,269,2.0,8.0,82,0.00,,,0.00,meteohub,2013-08-28 08:42:00,
2013-08-28 03:47:00,76.3,70.3,29.90,SW,229,6.0,8.0,82,0.00,,,0.00,meteohub,2013-08-28 08:47:00,
2013-08-28 03:52:00,76.5,70.2,29.90,SW,233,5.0,7.0,81,0.00,,,0.00,meteohub,2013-08-28 08:52:00,
2013-08-28 03:57:00,76.5,70.2,29.91,SW,222,6.0,7.0,81,0.00,,,0.00,meteohub,2013-08-28 08:57:00,
2013-08-28 04:02:00,76.3,70.0,29.91,SW,223,1.0,7.0,81,0.00,,,0.00,meteohub,2013-08-28 09:02:00,
2013-08-28 04:07:00,76.1,69.8,29.91,SW,232,1.0,7.0,81,0.00,,,0.00,meteohub,2013-08-28 09:07:00,
2013-08-28 04:12:00,75.9,69.6,29.90,WSW,244,5.0,7.0,81,0.00,,,0.00,meteohub,2013-08-28 09:12:00,
2013-08-28 04:17:00,75.9,69.6,29.90,WSW,252,5.0,7.0,81,0.00,,,0.00,meteohub,2013-08-28 09:17:00,
2013-08-28 04:22:00,75.9,69.6,29.90,SSW,200,3.0,7.0,81,0.00,,,0.00,meteohub,2013-08-28 09:22:00,
2013-08-28 04:27:00,75.7,69.4,29.90,SW,223,4.0,8.0,81,0.00,,,0.00,meteohub,2013-08-28 09:27:00,
2013-08-28 04:32:00,75.7,69.4,29.90,SW,225,6.0,10.0,81,0.00,,,0.00,meteohub,2013-08-28 09:32:00,
2013-08-28 04:35:00,75.6,69.3,29.90,SW,230,5.0,10.0,81,0.00,,,0.00,meteohub,2013-08-28 09:35:00,
2013-08-28 04:40:00,75.6,69.3,29.90,West,261,1.0,10.0,81,0.00,,,0.00,meteohub,2013-08-28 09:40:00,
2013-08-28 04:45:00,75.6,69.3,29.90,SSW,194,2.0,8.0,81,0.00,,,0.00,meteohub,2013-08-28 09:45:00,
2013-08-28 04:50:00,75.6,68.9,29.91,SSW,193,1.0,8.0,80,0.00,,,0.00,meteohub,2013-08-28 09:50:00,
2013-08-28 04:55:00,75.6,68.9,29.91,WSW,242,0.0,8.0,80,0.00,,,0.00,meteohub,2013-08-28 09:55:00,
2013-08-28 05:00:00,75.6,68.9,29.91,SSW,195,2.0,7.0,80,0.00,,,0.00,meteohub,2013-08-28 10:00:00,
2013-08-28 05:05:00,75.7,68.7,29.91,SSW,205,2.0,5.0,79,0.00,,,0.00,meteohub,2013-08-28 10:05:00,
2013-08-28 05:10:00,75.7,68.7,29.91,SW,216,1.0,7.0,79,0.00,,,0.00,meteohub,2013-08-28 10:10:00,
2013-08-28 05:15:00,75.7,68.7,29.91,SW,229,4.0,7.0,79,0.00,,,0.00,meteohub,2013-08-28 10:15:00,
2013-08-28 05:20:00,75.6,68.9,29.91,SW,215,3.0,7.0,80,0.00,,,0.00,meteohub,2013-08-28 10:20:00,
2013-08-28 05:25:00,75.4,68.7,29.91,WSW,249,0.0,6.0,80,0.00,,,0.00,meteohub,2013-08-28 10:25:00,
2013-08-28 05:30:00,75.2,68.5,29.91,SW,236,0.0,9.0,80,0.00,,,0.00,meteohub,2013-08-28 10:30:00,
2013-08-28 05:35:00,75.0,68.4,29.91,WSW,243,1.0,9.0,80,0.00,,,0.00,meteohub,2013-08-28 10:35:00,
2013-08-28 05:41:00,75.0,68.0,29.91,SW,214,5.0,7.0,79,0.00,,,0.00,meteohub,2013-08-28 10:41:00,
2013-08-28 05:46:00,75.0,68.0,29.91,SW,221,2.0,7.0,79,0.00,,,0.00,meteohub,2013-08-28 10:46:00,
2013-08-28 05:51:00,75.0,68.0,29.91,WSW,240,3.0,7.0,79,0.00,,,0.00,meteohub,2013-08-28 10:51:00,
2013-08-28 05:56:00,74.8,68.2,29.91,WSW,239,4.0,7.0,80,0.00,,,0.00,meteohub,2013-08-28 10:56:00,
2013-08-28 06:01:00,74.8,67.8,29.91,West,271,5.0,7.0,79,0.00,,,0.00,meteohub,2013-08-28 11:01:00,
2013-08-28 06:06:00,74.7,67.6,29.91,WSW,248,0.0,7.0,79,0.00,,,0.00,meteohub,2013-08-28 11:06:00,
2013-08-28 06:11:00,74.8,67.8,29.91,WSW,257,1.0,7.0,79,0.00,,,0.00,meteohub,2013-08-28 11:11:00,
2013-08-28 06:16:00,74.8,67.8,29.91,SW,221,1.0,7.0,79,0.00,,,0.00,meteohub,2013-08-28 11:16:00,
2013-08-28 06:21:00,74.7,67.6,29.91,WSW,254,2.0,7.0,79,0.00,,,0.00,meteohub,2013-08-28 11:21:00,
2013-08-28 06:26:00,74.7,67.6,29.91,WSW,250,5.0,7.0,79,0.00,,,0.00,meteohub,2013-08-28 11:26:00,
2013-08-28 06:31:00,74.7,67.6,29.91,SSW,212,1.0,8.0,79,0.00,,,0.00,meteohub,2013-08-28 11:31:00,
2013-08-28 06:36:00,74.7,67.6,29.91,SSW,209,2.0,8.0,79,0.00,,,0.00,meteohub,2013-08-28 11:36:00,
2013-08-28 06:41:00,74.7,67.6,29.91,SW,232,6.0,8.0,79,0.00,,,0.00,meteohub,2013-08-28 11:41:00,
2013-08-28 06:46:00,74.8,67.8,29.91,SW,234,4.0,8.0,79,0.00,,,0.00,meteohub,2013-08-28 11:46:00,
2013-08-28 06:51:00,74.8,67.5,29.91,WSW,241,0.0,8.0,78,0.00,,,0.00,meteohub,2013-08-28 11:51:00,
2013-08-28 06:56:00,75.0,67.6,29.91,SW,223,6.0,8.0,78,0.00,,,0.00,meteohub,2013-08-28 11:56:00,
2013-08-28 07:01:00,75.0,67.6,29.91,SW,216,2.0,7.0,78,0.00,,,0.00,meteohub,2013-08-28 12:01:00,
2013-08-28 07:06:00,75.0,67.6,29.92,SSW,210,5.0,7.0,78,0.00,,,0.00,meteohub,2013-08-28 12:06:00,
2013-08-28 07:11:00,75.4,68.0,29.92,West,259,3.0,9.0,78,0.00,,,0.00,meteohub,2013-08-28 12:11:00,
2013-08-28 07:16:00,75.6,67.8,29.92,SW,221,6.0,9.0,77,0.00,,,0.00,meteohub,2013-08-28 12:16:00,
2013-08-28 07:22:00,75.7,68.0,29.92,SW,236,3.0,9.0,77,0.00,,,0.00,meteohub,2013-08-28 12:22:00,
2013-08-28 07:27:00,75.7,68.0,29.91,SW,234,6.0,8.0,77,0.00,,,0.00,meteohub,2013-08-28 12:27:00,
2013-08-28 07:32:00,76.1,68.0,29.91,WSW,242,6.0,8.0,76,0.00,,,0.00,meteohub,2013-08-28 12:32:00,
2013-08-28 07:37:00,76.3,67.8,29.92,SW,220,0.0,8.0,75,0.00,,,0.00,meteohub,2013-08-28 12:37:00,
2013-08-28 07:42:00,76.5,68.0,29.91,SW,227,6.0,8.0,75,0.00,,,0.00,meteohub,2013-08-28 12:42:00,
2013-08-28 07:47:00,76.5,68.0,29.91,SSW,212,1.0,10.0,75,0.00,,,0.00,meteohub,2013-08-28 12:47:00,
2013-08-28 07:52:00,76.8,67.5,29.91,WSW,246,4.0,14.0,73,0.00,,,0.00,meteohub,2013-08-28 12:52:00,
2013-08-28 07:57:00,77.2,67.8,29.91,SW,230,4.0,14.0,73,0.00,,,0.00,meteohub,2013-08-28 12:57:00,
2013-08-28 08:02:00,77.2,67.8,29.91,WSW,248,6.0,14.0,73,0.00,,,0.00,meteohub,2013-08-28 13:02:00,
2013-08-28 08:07:00,77.4,67.6,29.91,WSW,244,7.0,12.0,72,0.00,,,0.00,meteohub,2013-08-28 13:07:00,
2013-08-28 08:12:00,77.7,68.0,29.91,NW,315,3.0,12.0,72,0.00,,,0.00,meteohub,2013-08-28 13:12:00,
2013-08-28 08:17:00,78.3,68.0,29.91,SSW,209,1.0,12.0,71,0.00,,,0.00,meteohub,2013-08-28 13:17:00,
2013-08-28 08:22:00,78.4,67.8,29.91,West,263,0.0,8.0,70,0.00,,,0.00,meteohub,2013-08-28 13:22:00,
2013-08-28 08:27:00,78.6,68.0,29.91,SW,225,7.0,10.0,70,0.00,,,0.00,meteohub,2013-08-28 13:27:00,
2013-08-28 08:32:00,78.6,68.0,29.91,SW,225,7.0,10.0,70,0.00,,,0.00,meteohub,2013-08-28 13:32:00,
2013-08-28 08:37:00,78.6,68.0,29.91,North,-999,-999.0,8.0,70,0.00,,,0.00,meteohub,2013-08-28 13:37:00,
2013-08-28 13:23:00,91.6,73.0,29.91,North,-999,-999.0,-999.0,55,-99.99,,,0.00,meteohub,2013-08-28 18:23:00,
2013-08-28 13:28:00,91.4,73.0,29.90,North,-999,-999.0,-999.0,55,0.00,,,0.00,meteohub,2013-08-28 18:28:00,
2013-08-28 13:33:00,91.6,73.6,29.91,WSW,238,4.0,-999.0,56,0.00,,,0.00,meteohub,2013-08-28 18:33:00,
2013-08-28 13:39:00,91.9,73.9,29.90,SSW,213,4.0,10.0,56,0.00,,,0.00,meteohub,2013-08-28 18:39:00,
2013-08-28 13:44:00,93.0,73.9,29.90,WNW,302,5.0,10.0,54,0.00,,,0.00,meteohub,2013-08-28 18:44:00,
2013-08-28 13:49:00,93.0,73.9,29.90,WNW,294,7.0,10.0,54,0.00,,,0.00,meteohub,2013-08-28 18:49:00,
2013-08-28 13:54:00,92.8,73.8,29.90,NNW,342,3.0,9.0,54,0.00,,,0.00,meteohub,2013-08-28 18:54:00,
2013-08-28 13:59:00,93.4,74.3,29.90,SW,215,4.0,10.0,54,0.00,,,0.00,meteohub,2013-08-28 18:59:00,
2013-08-28 14:04:00,93.7,73.9,29.90,North,355,5.0,10.0,53,0.00,,,0.00,meteohub,2013-08-28 19:04:00,
2013-08-28 14:09:00,93.4,74.3,29.90,WNW,285,7.0,10.0,54,0.00,,,0.00,meteohub,2013-08-28 19:09:00,
2013-08-28 14:14:00,93.4,74.3,29.90,SW,234,6.0,10.0,54,0.00,,,0.00,meteohub,2013-08-28 19:14:00,
2013-08-28 14:19:00,93.6,75.0,29.89,NW,311,4.0,10.0,55,0.00,,,0.00,meteohub,2013-08-28 19:19:00,
2013-08-28 14:24:00,93.4,74.8,29.89,WSW,238,11.0,13.0,55,0.00,,,0.00,meteohub,2013-08-28 19:24:00,
2013-08-28 14:29:00,93.4,74.3,29.89,SW,229,6.0,13.0,54,0.00,,,0.00,meteohub,2013-08-28 19:29:00,
2013-08-28 14:35:00,93.9,74.1,29.89,SSW,209,1.0,13.0,53,0.00,,,0.00,meteohub,2013-08-28 19:35:00,
2013-08-28 14:40:00,94.3,75.0,29.89,West,260,6.0,13.0,54,0.00,,,0.00,meteohub,2013-08-28 19:40:00,
2013-08-28 14:45:00,93.9,74.7,29.89,WSW,252,5.0,9.0,54,0.00,,,0.00,meteohub,2013-08-28 19:45:00,
2013-08-28 14:50:00,93.6,74.5,29.89,West,268,9.0,10.0,54,0.00,,,0.00,meteohub,2013-08-28 19:50:00,
2013-08-28 14:55:00,93.2,74.7,29.89,NW,306,4.0,12.0,55,0.00,,,0.00,meteohub,2013-08-28 19:55:00,
2013-08-28 15:00:00,93.0,74.5,29.89,West,273,1.0,13.0,55,0.00,,,0.00,meteohub,2013-08-28 20:00:00,
2013-08-28 15:05:00,93.6,75.0,29.88,West,266,5.0,10.0,55,0.00,,,0.00,meteohub,2013-08-28 20:05:00,
2013-08-28 15:10:00,93.7,74.7,29.88,NNW,335,2.0,11.0,54,0.00,,,0.00,meteohub,2013-08-28 20:10:00,
2013-08-28 15:15:00,94.3,75.0,29.88,SW,227,7.0,12.0,54,0.00,,,0.00,meteohub,2013-08-28 20:15:00,
2013-08-28 15:20:00,93.4,74.8,29.88,NW,317,6.0,12.0,55,0.00,,,0.00,meteohub,2013-08-28 20:20:00,
2013-08-28 15:25:00,93.4,75.4,29.88,West,263,0.0,12.0,56,0.00,,,0.00,meteohub,2013-08-28 20:25:00,
2013-08-28 15:30:00,93.4,74.8,29.88,WSW,251,8.0,11.0,55,0.00,,,0.00,meteohub,2013-08-28 20:30:00,
2013-08-28 15:36:00,93.6,75.6,29.88,SW,231,5.0,10.0,56,0.00,,,0.00,meteohub,2013-08-28 20:36:00,
2013-08-28 15:41:00,93.4,75.4,29.88,WSW,246,6.0,10.0,56,0.00,,,0.00,meteohub,2013-08-28 20:41:00,
2013-08-28 15:46:00,93.0,75.0,29.88,WSW,246,4.0,10.0,56,0.00,,,0.00,meteohub,2013-08-28 20:46:00,
2013-08-28 15:51:00,93.0,75.0,29.88,NW,323,4.0,10.0,56,0.00,,,0.00,meteohub,2013-08-28 20:51:00,
2013-08-28 15:56:00,93.0,75.0,29.88,West,266,4.0,12.0,56,0.00,,,0.00,meteohub,2013-08-28 20:56:00,
2013-08-28 16:01:00,92.8,74.8,29.88,West,259,1.0,12.0,56,0.00,,,0.00,meteohub,2013-08-28 21:01:00,
2013-08-28 16:06:00,92.7,75.2,29.88,West,269,3.0,12.0,57,0.00,,,0.00,meteohub,2013-08-28 21:06:00,
2013-08-28 16:11:00,93.2,75.2,29.88,NW,312,3.0,11.0,56,0.00,,,0.00,meteohub,2013-08-28 21:11:00,
2013-08-28 16:16:00,92.8,75.4,29.88,South,180,0.0,11.0,57,0.00,,,0.00,meteohub,2013-08-28 21:16:00,
2013-08-28 16:21:00,92.5,75.6,29.88,West,276,3.0,9.0,58,0.00,,,0.00,meteohub,2013-08-28 21:21:00,
2013-08-28 16:26:00,92.1,75.2,29.88,NW,315,12.0,14.0,58,0.00,,,0.00,meteohub,2013-08-28 21:26:00,
2013-08-28 16:31:00,91.8,75.4,29.88,West,259,5.0,14.0,59,0.00,,,0.00,meteohub,2013-08-28 21:31:00,
2013-08-28 16:36:00,91.6,75.7,29.88,WSW,252,8.0,14.0,60,0.00,,,0.00,meteohub,2013-08-28 21:36:00,
2013-08-28 16:41:00,91.2,75.4,29.88,WSW,244,3.0,12.0,60,0.00,,,0.00,meteohub,2013-08-28 21:41:00,
2013-08-28 16:46:00,91.6,75.7,29.88,West,280,5.0,11.0,60,0.00,,,0.00,meteohub,2013-08-28 21:46:00,
2013-08-28 16:52:00,91.8,75.9,29.87,WNW,297,1.0,11.0,60,0.00,,,0.00,meteohub,2013-08-28 21:52:00,
2013-08-28 16:57:00,91.9,76.1,29.88,North,355,0.0,7.0,60,0.00,,,0.00,meteohub,2013-08-28 21:57:00,
2013-08-28 17:02:00,91.9,76.1,29.88,NNW,335,7.0,7.0,60,0.00,,,0.00,meteohub,2013-08-28 22:02:00,
2013-08-28 17:07:00,91.8,76.5,29.88,North,349,7.0,9.0,61,0.00,,,0.00,meteohub,2013-08-28 22:07:00,
2013-08-28 17:12:00,91.2,75.4,29.88,North,355,5.0,9.0,60,0.00,,,0.00,meteohub,2013-08-28 22:12:00,
2013-08-28 17:17:00,90.7,75.9,29.88,NNW,346,7.0,10.0,62,0.00,,,0.00,meteohub,2013-08-28 22:17:00,
2013-08-28 17:22:00,90.3,75.6,29.88,North,349,1.0,10.0,62,0.00,,,0.00,meteohub,2013-08-28 22:22:00,
2013-08-28 17:27:00,90.3,75.9,29.88,North,5,0.0,9.0,63,0.00,,,0.00,meteohub,2013-08-28 22:27:00,
2013-08-28 17:32:00,90.1,75.9,29.88,North,349,4.0,8.0,63,0.00,,,0.00,meteohub,2013-08-28 22:32:00,
2013-08-28 17:37:00,90.1,75.9,29.88,NNE,17,0.0,7.0,63,0.00,,,0.00,meteohub,2013-08-28 22:37:00,
2013-08-28 17:42:00,90.3,76.5,29.88,NNE,25,6.0,7.0,64,0.00,,,0.00,meteohub,2013-08-28 22:42:00,
2013-08-28 17:47:00,90.7,76.3,29.88,NNW,331,6.0,7.0,63,0.00,,,0.00,meteohub,2013-08-28 22:47:00,
2013-08-28 17:52:00,90.7,76.3,29.88,NNE,22,7.0,9.0,63,0.00,,,0.00,meteohub,2013-08-28 22:52:00,
2013-08-28 17:57:00,90.5,76.6,29.88,NE,51,7.0,13.0,64,0.00,,,0.00,meteohub,2013-08-28 22:57:00,
2013-08-28 18:02:00,90.0,76.6,29.89,NNE,31,4.0,14.0,65,0.00,,,0.00,meteohub,2013-08-28 23:02:00,
2013-08-28 18:07:00,89.2,76.5,29.89,NNE,24,9.0,14.0,66,0.00,,,0.00,meteohub,2013-08-28 23:07:00,
2013-08-28 18:12:00,88.5,76.6,29.89,ENE,60,7.0,14.0,68,0.00,,,0.00,meteohub,2013-08-28 23:12:00,
2013-08-28 18:17:00,88.2,76.6,29.89,ENE,65,2.0,12.0,69,0.00,,,0.00,meteohub,2013-08-28 23:17:00,
2013-08-28 18:22:00,87.8,76.3,29.89,ENE,57,9.0,11.0,69,0.00,,,0.00,meteohub,2013-08-28 23:22:00,
2013-08-28 18:27:00,87.4,76.5,29.89,NE,47,5.0,12.0,70,0.00,,,0.00,meteohub,2013-08-28 23:27:00,
2013-08-28 18:32:00,87.3,76.3,29.89,NNE,18,8.0,12.0,70,0.00,,,0.00,meteohub,2013-08-28 23:32:00,
2013-08-28 18:37:00,86.7,76.1,29.89,North,5,5.0,12.0,71,0.00,,,0.00,meteohub,2013-08-28 23:37:00,
2013-08-28 18:42:00,86.4,75.9,29.90,NE,35,6.0,13.0,71,0.00,,,0.00,meteohub,2013-08-28 23:42:00,
2013-08-28 18:47:00,86.0,75.9,29.90,NNE,21,7.0,13.0,72,0.00,,,0.00,meteohub,2013-08-28 23:47:00,
2013-08-28 18:52:00,85.5,75.4,29.91,NE,36,5.0,13.0,72,0.00,,,0.00,meteohub,2013-08-28 23:52:00,
2013-08-28 18:57:00,85.1,75.4,29.90,ENE,57,6.0,11.0,73,0.00,,,0.00,meteohub,2013-08-28 23:57:00,
2013-08-28 19:02:00,84.7,75.6,29.90,NE,35,6.0,11.0,74,0.00,,,0.00,meteohub,2013-08-29 00:02:00,
2013-08-28 19:07:00,84.6,75.4,29.91,NE,43,5.0,11.0,74,0.00,,,0.00,meteohub,2013-08-29 00:07:00,
2013-08-28 19:12:00,84.0,74.8,29.91,ENE,73,9.0,11.0,74,0.00,,,0.00,meteohub,2013-08-29 00:12:00,
2013-08-28 19:17:00,83.3,74.5,29.91,NNE,17,12.0,12.0,75,0.00,,,0.00,meteohub,2013-08-29 00:17:00,
2013-08-28 19:22:00,82.8,73.9,29.91,ENE,63,4.0,13.0,75,0.00,,,0.00,meteohub,2013-08-29 00:22:00,
2013-08-28 19:27:00,82.0,73.8,29.91,NNE,33,6.0,13.0,76,0.00,,,0.00,meteohub,2013-08-29 00:27:00,
2013-08-28 19:32:00,81.7,73.8,29.92,North,9,6.0,13.0,77,0.00,,,0.00,meteohub,2013-08-29 00:32:00,
2013-08-28 19:37:00,81.1,73.2,29.91,NE,44,7.0,13.0,77,0.00,,,0.00,meteohub,2013-08-29 00:37:00,
2013-08-28 19:42:00,81.0,73.0,29.91,NNE,28,2.0,12.0,77,0.00,,,0.00,meteohub,2013-08-29 00:42:00,
2013-08-28 19:47:00,80.6,73.0,29.92,NNE,22,1.0,12.0,78,0.00,,,0.00,meteohub,2013-08-29 00:47:00,
2013-08-28 19:52:00,80.2,72.7,29.92,NE,50,4.0,11.0,78,0.00,,,0.00,meteohub,2013-08-29 00:52:00,
2013-08-28 19:57:00,80.1,72.5,29.92,NE,36,6.0,11.0,78,0.00,,,0.00,meteohub,2013-08-29 00:57:00,
2013-08-28 20:02:00,79.9,72.3,29.92,ENE,57,4.0,8.0,78,0.00,,,0.00,meteohub,2013-08-29 01:02:00,
2013-08-28 20:07:00,79.5,72.5,29.93,NE,45,5.0,10.0,79,0.00,,,0.00,meteohub,2013-08-29 01:07:00,
2013-08-28 20:12:00,79.5,72.5,29.93,NNE,30,7.0,10.0,79,0.00,,,0.00,meteohub,2013-08-29 01:12:00,
2013-08-28 20:17:00,79.3,72.3,29.93,NNE,28,5.0,10.0,79,0.00,,,0.00,meteohub,2013-08-29 01:17:00,
2013-08-28 20:22:00,79.2,72.1,29.94,NE,37,1.0,9.0,79,0.00,,,0.00,meteohub,2013-08-29 01:22:00,
2013-08-28 20:27:00,79.0,72.3,29.94,ENE,61,4.0,9.0,80,0.00,,,0.00,meteohub,2013-08-29 01:27:00,
2013-08-28 20:32:00,78.6,72.0,29.94,NE,34,5.0,8.0,80,0.00,,,0.00,meteohub,2013-08-29 01:32:00,
2013-08-28 20:37:00,78.4,71.8,29.94,NE,44,6.0,8.0,80,0.00,,,0.00,meteohub,2013-08-29 01:37:00,
2013-08-28 20:42:00,78.3,71.6,29.94,NNE,32,7.0,8.0,80,0.00,,,0.00,meteohub,2013-08-29 01:42:00,
2013-08-28 20:47:00,78.1,71.8,29.94,NNE,17,3.0,11.0,81,0.00,,,0.00,meteohub,2013-08-29 01:47:00,
2013-08-28 20:52:00,77.7,71.4,29.94,NNE,21,2.0,11.0,81,0.00,,,0.00,meteohub,2013-08-29 01:52:00,
2013-08-28 20:57:00,77.5,71.2,29.94,NE,39,8.0,11.0,81,0.00,,,0.00,meteohub,2013-08-29 01:57:00,
2013-08-28 21:02:00,77.4,71.4,29.94,NNE,27,3.0,10.0,82,0.00,,,0.00,meteohub,2013-08-29 02:02:00,
2013-08-28 21:07:00,77.0,71.1,29.95,NNE,32,6.0,10.0,82,0.00,,,0.00,meteohub,2013-08-29 02:07:00,
2013-08-28 21:12:00,76.6,71.1,29.95,NE,54,10.0,10.0,83,0.00,,,0.00,meteohub,2013-08-29 02:12:00,
2013-08-28 21:17:00,76.5,71.2,29.95,NNE,17,4.0,10.0,84,0.00,,,0.00,meteohub,2013-08-29 02:17:00,
2013-08-28 21:22:00,76.3,71.1,29.95,NE,36,0.0,10.0,84,0.00,,,0.00,meteohub,2013-08-29 02:22:00,
2013-08-28 21:27:00,75.9,70.7,29.95,NE,52,0.0,10.0,84,0.00,,,0.00,meteohub,2013-08-29 02:27:00,
2013-08-28 21:32:00,75.7,70.5,29.95,NNE,24,1.0,8.0,84,0.00,,,0.00,meteohub,2013-08-29 02:32:00,
2013-08-28 21:37:00,75.4,70.5,29.95,NNE,29,5.0,8.0,85,0.00,,,0.00,meteohub,2013-08-29 02:37:00,
2013-08-28 21:42:00,75.2,70.3,29.96,NE,34,7.0,8.0,85,0.00,,,0.00,meteohub,2013-08-29 02:42:00,
2013-08-28 21:47:00,75.0,70.2,29.96,NE,46,1.0,9.0,85,0.00,,,0.00,meteohub,2013-08-29 02:47:00,
2013-08-28 21:52:00,74.8,70.0,29.96,North,11,1.0,9.0,85,0.00,,,0.00,meteohub,2013-08-29 02:52:00,
2013-08-28 21:57:00,74.7,69.8,29.96,NNE,15,2.0,9.0,85,0.00,,,0.00,meteohub,2013-08-29 02:57:00,
2013-08-28 22:02:00,74.5,70.0,29.96,NE,42,4.0,9.0,86,0.00,,,0.00,meteohub,2013-08-29 03:02:00,
2013-08-28 22:07:00,74.3,69.8,29.96,NE,55,4.0,10.0,86,0.00,,,0.00,meteohub,2013-08-29 03:07:00,
2013-08-28 22:12:00,74.1,69.6,29.97,NE,34,2.0,10.0,86,0.00,,,0.00,meteohub,2013-08-29 03:12:00,
2013-08-28 22:17:00,73.9,69.8,29.96,NE,36,5.0,10.0,87,0.00,,,0.00,meteohub,2013-08-29 03:17:00,
2013-08-28 22:22:00,73.9,69.8,29.96,NE,36,4.0,9.0,87,0.00,,,0.00,meteohub,2013-08-29 03:22:00,
2013-08-28 22:27:00,73.8,69.6,29.96,ESE,107,1.0,9.0,87,0.00,,,0.00,meteohub,2013-08-29 03:27:00,
2013-08-28 22:32:00,73.8,69.6,29.96,East,88,0.0,7.0,87,0.00,,,0.00,meteohub,2013-08-29 03:32:00,
2013-08-28 22:37:00,73.8,69.6,29.96,ENE,63,2.0,5.0,87,0.00,,,0.00,meteohub,2013-08-29 03:37:00,
2013-08-28 22:42:00,73.6,69.4,29.97,NNE,17,0.0,3.0,87,0.00,,,0.00,meteohub,2013-08-29 03:42:00,
2013-08-28 22:47:00,73.6,69.8,29.96,NE,55,4.0,4.0,88,0.00,,,0.00,meteohub,2013-08-29 03:47:00,
2013-08-28 22:52:00,73.4,69.6,29.96,NE,42,0.0,4.0,88,0.00,,,0.00,meteohub,2013-08-29 03:52:00,
2013-08-28 22:57:00,73.2,69.4,29.96,ENE,60,0.0,6.0,88,0.00,,,0.00,meteohub,2013-08-29 03:57:00,
2013-08-28 23:01:00,73.2,69.4,29.96,NE,54,2.0,6.0,88,0.00,,,0.00,meteohub,2013-08-29 04:01:00,
2013-08-28 23:02:00,73.2,69.4,29.96,NE,49,0.0,6.0,88,0.00,,,0.00,meteohub,2013-08-29 04:02:00,
2013-08-28 23:04:00,73.2,69.4,29.96,NE,55,0.0,6.0,88,0.00,,,0.00,meteohub,2013-08-29 04:04:00,
2013-08-28 23:09:00,73.0,69.3,29.96,NE,38,0.0,5.0,88,0.00,,,0.00,meteohub,2013-08-29 04:09:00,
2013-08-28 23:14:00,73.0,69.6,29.96,ENE,57,1.0,6.0,89,0.00,,,0.00,meteohub,2013-08-29 04:14:00,
2013-08-28 23:19:00,72.9,69.4,29.96,NE,47,1.0,6.0,89,0.00,,,0.00,meteohub,2013-08-29 04:19:00,
2013-08-28 23:24:00,72.9,69.4,29.96,ENE,62,0.0,6.0,89,0.00,,,0.00,meteohub,2013-08-29 04:24:00,
2013-08-28 23:29:00,72.9,69.4,29.96,NE,52,4.0,5.0,89,0.00,,,0.00,meteohub,2013-08-29 04:29:00,
2013-08-28 23:35:00,72.7,69.3,29.96,NE,34,1.0,5.0,89,0.00,,,0.00,meteohub,2013-08-29 04:35:00,
2013-08-28 23:40:00,72.7,69.6,29.97,ENE,57,0.0,5.0,90,0.00,,,0.00,meteohub,2013-08-29 04:40:00,
2013-08-28 23:45:00,72.7,69.6,29.97,East,84,2.0,6.0,90,0.00,,,0.00,meteohub,2013-08-29 04:45:00,
2013-08-28 23:50:00,72.7,69.6,29.97,ENE,65,1.0,6.0,90,0.00,,,0.00,meteohub,2013-08-29 04:50:00,
2013-08-28 23:55:00,72.5,69.4,29.96,NE,40,4.0,6.0,90,0.00,,,0.00,meteohub,2013-08-29 04:55:00,